Dewpoint
28 31 31 33 37 52 56 59 59 61 61 60 61 60 61 61 61 61 61 61 60 60 61 60 60 58 55 55 55 55 54 53
31 33 38 43 44 53 57 58 59 60 59 58 59 59 60 60 61 61 60 61 61 61 60 59 59 57 55 54 54 53 54 53
34 36 42 49 49 54 57 57 58 59 59 60 59 59 59 59 60 60 60 61 60 59 58 57 57 57 55 54 54 53 53 53
39 39 38 46 52 55 56 57 57 59 59 59 58 57 57 57 58 59 60 61 60 59 57 56 55 54 54 54 54 53 52 52
40 40 41 42 50 55 56 56 57 58 58 57 56 55 54 55 56 57 60 61 59 59 57 56 55 55 54 54 55 54 53 51
41 41 42 44 50 54 55 56 56 57 57 56 55 54 54 54 55 55 58 60 60 58 57 55 55 55 54 54 54 54 54 53
41 42 43 44 53 55 55 55 55 56 56 55 54 54 54 53 53 53 56 56 58 59 56 55 55 54 54 54 54 54 54 53
41 42 43 43 47 54 54 54 54 55 55 55 54 54 53 52 53 54 55 55 56 58 56 55 54 53 52 51 52 53 53 52
41 41 42 43 47 53 53 53 53 54 54 53 53 54 53 53 53 53 54 54 55 57 57 55 54 53 53 51 51 52 52 52
41 42 43 43 47 52 53 53 53 53 54 54 53 53 53 53 53 52 53 54 55 57 57 56 54 54 54 51 51 51 52 53
41 43 43 46 48 53 54 53 53 54 54 54 53 53 53 53 53 52 53 54 54 55 56 55 54 55 53 52 52 52 52 52
43 44 45 48 49 53 53 53 53 53 53 53 53 53 53 53 53 53 53 54 54 55 55 54 54 54 53 52 51 51 51 51
45 45 46 49 50 53 53 53 53 53 53 52 52 52 53 53 52 53 54 54 54 54 54 54 54 53 53 51 50 49 51 51
46 45 44 48 53 52 53 53 53 53 53 52 51 51 52 52 52 52 53 53 54 54 54 53 53 53 52 51 51 49 49 51
44 43 43 45 53 52 52 53 53 53 52 51 50 51 52 52 52 52 52 52 53 53 53 53 53 53 53 52 52 51 50 50
43 42 41 42 45 51 52 53 53 53 52 51 50 50 51 52 51 51 51 51 52 52 53 53 53 53 53 53 52 52 52 51
40 40 39 39 40 44 53 53 54 53 52 52 51 51 51 51 51 51 51 51 50 51 51 52 53 53 52 52 52 52 51 51
38 37 37 37 38 41 46 52 55 54 53 53 52 51 51 51 52 51 50 50 50 50 50 51 51 52 50 50 50 52 51 51
36 35 35 35 37 38 41 51 54 54 54 54 53 53 52 51 51 51 51 50 50 50 50 50 50 51 49 49 49 52 52 52
Wind_Speed
16 13 15 19 20 21 22 24 25 25 19 15 14 13 12 12 13 13 16 15 17 16 13 14 17 15 17 19 24 19 18 18
8 12 15 16 15 17 22 24 24 23 22 21 17 18 15 13 13 14 15 15 18 15 12 15 17 21 24 20 23 30 16 18
14 15 13 13 15 16 19 23 25 27 22 19 10 15 11 12 12 14 16 17 17 15 15 14 15 16 27 28 26 20 14 19
16 17 17 14 15 14 17 21 23 25 22 18 12 11 6 10 11 14 16 18 18 18 17 16 17 17 22 30 26 23 18 16
14 18 18 17 16 14 16 18 21 24 24 22 21 20 16 12 12 13 11 16 17 17 18 21 22 18 21 22 19 18 21 20
15 18 19 22 11 15 17 18 21 23 25 23 21 15 12 11 13 13 11 10 14 17 20 20 21 18 20 24 24 21 22 22
16 19 19 20 9 13 16 19 22 23 25 22 21 19 16 14 13 13 12 10 9 18 22 22 22 21 20 20 22 23 25 24
16 20 24 23 17 15 17 20 22 23 24 22 21 19 17 16 15 14 11 11 10 12 18 21 23 25 25 23 21 22 24 22
17 19 22 24 25 18 20 21 22 23 24 21 19 19 16 14 14 12 13 14 12 13 18 20 22 22 24 23 20 18 22 19
21 20 22 27 26 17 20 21 21 22 20 20 19 18 17 15 14 12 12 12 12 14 17 21 22 23 20 22 20 22 20 19
22 21 26 29 26 16 19 21 21 21 19 18 18 18 16 15 15 15 13 12 12 14 14 19 22 23 25 27 24 20 24 20
25 25 34 32 27 17 21 22 21 21 21 19 16 16 16 15 15 15 14 12 10 13 15 17 19 21 23 25 27 24 22 23
25 27 35 40 14 17 19 19 20 20 19 18 15 15 16 16 15 16 15 14 12 13 14 16 17 19 22 27 28 27 27 22
23 28 33 34 9 14 16 17 17 18 20 18 16 15 16 16 15 15 16 16 14 13 14 16 18 19 22 23 24 27 27 22
21 27 29 33 6 13 15 16 17 18 19 18 16 15 16 16 15 16 16 16 17 16 16 15 16 17 19 24 23 26 28 27
20 21 24 28 20 6 11 13 16 17 16 16 15 14 14 15 16 17 17 17 18 18 17 18 16 17 17 17 21 19 21 21
18 11 12 21 24 20 1 12 13 16 16 15 15 16 15 15 16 17 17 17 17 17 19 18 20 18 19 22 19 17 19 20
21 22 21 21 21 20 14 2 17 15 15 15 15 14 15 15 15 15 17 18 18 18 18 18 18 19 24 28 28 23 21 21
18 20 22 22 22 22 19 14 10 10 11 11 11 13 14 14 16 16 16 16 17 18 17 18 17 18 22 28 30 25 22 24
Wind_Direction
272 277 266 263 257 236 217 201 194 185 180 179 186 177 185 186 194 198 208 201 205 200 182 171 160 153 152 157 151 149 162 162
287 275 279 275 264 222 206 195 190 179 179 180 181 189 187 186 194 195 195 197 188 188 180 173 168 167 163 165 156 147 158 159
314 317 288 265 256 223 204 199 188 188 184 184 183 179 190 189 193 198 197 199 186 176 173 173 176 182 167 163 158 156 153 162
332 334 324 282 252 226 208 200 191 192 182 171 157 145 146 179 204 200 199 190 183 178 168 165 148 158 167 161 160 164 149 176
344 338 327 321 267 223 208 207 189 190 177 174 181 186 194 195 197 205 182 181 180 179 170 165 160 156 155 155 155 151 153 172
335 336 329 330 266 217 202 190 197 187 180 179 178 190 193 183 194 196 189 186 181 182 167 169 164 170 162 165 168 170 168 180
340 341 341 341 290 220 199 187 195 186 180 177 173 184 187 190 194 206 201 193 187 182 176 175 166 172 169 174 177 176 180 187
344 345 344 333 315 233 206 195 195 189 181 175 177 185 185 190 190 193 188 188 194 172 176 179 176 183 180 180 176 187 190 187
335 342 339 329 328 240 211 201 194 192 182 181 179 180 182 184 185 193 204 202 191 191 181 173 179 180 179 185 177 177 175 184
332 332 337 329 327 253 212 201 195 189 191 176 181 177 181 187 187 187 197 197 192 190 180 175 178 182 180 178 179 176 178 178
335 324 333 324 316 255 204 194 192 184 183 188 185 177 180 183 181 185 190 187 185 186 181 182 182 175 175 176 174 179 175 185
335 335 336 322 304 227 199 190 186 183 181 183 171 176 179 178 180 184 187 180 189 185 172 175 179 183 178 179 182 183 179 187
348 351 338 319 262 189 190 182 182 179 173 171 165 175 179 179 183 185 181 172 195 184 173 172 177 179 176 179 184 190 191 183
357 356 342 328 196 176 178 174 174 170 168 161 157 177 180 184 188 188 187 177 178 181 169 176 178 183 183 185 183 187 194 185
5 1 345 332 235 179 170 164 164 164 159 158 160 174 185 182 189 192 189 189 180 180 172 174 176 174 180 185 181 183 189 193
11 5 342 329 355 4 141 159 160 162 150 155 164 177 185 183 190 196 193 191 192 191 186 184 180 181 180 178 188 188 188 193
358 359 316 343 358 357 226 154 148 152 149 157 166 172 184 192 194 199 196 198 200 193 193 190 193 193 191 189 186 191 197 201
352 347 356 346 355 351 360 285 148 154 156 162 166 170 185 193 201 203 205 202 204 206 204 197 197 201 194 198 200 210 211 216
355 347 347 355 356 3 7 47 119 137 157 165 161 175 190 193 196 206 209 208 203 205 207 202 201 204 201 204 204 210 217 221